Location: Brno
(49.2000°N, 16.6330°E)
Time: 07:41:01
(UTC+01:00)

Cosmos 2227 - Visible Passes

Search period start: 19 January 2017 00:00
Search period end: 29 January 2017 00:00
Orbit: 835 x 861 km, 71.0° (Epoch: 17 January)

Date Brightness Start Highest point End Pass type
(mag) Time Alt. Az. Time Alt. Az. Time Alt. Az.
19 Jan 7.0 04:11:28 10° SE 04:14:20 14° E 04:17:13 10° ENE visible
19 Jan 4.2 05:52:00 10° SSW 05:57:37 83° ESE 06:03:17 10° NNE visible
20 Jan 7.0 03:58:25 10° SE 04:01:14 14° E 04:04:01 10° ENE visible
20 Jan 4.2 05:38:53 10° SSW 05:44:29 82° ESE 05:50:09 10° NNE visible
21 Jan 7.0 03:45:23 10° SE 03:48:06 14° E 03:50:50 10° ENE visible
21 Jan 4.2 05:25:45 10° SSW 05:31:21 81° ESE 05:37:01 10° NNE visible
22 Jan 6.9 03:32:20 10° SE 03:34:59 14° E 03:37:38 10° ENE visible
22 Jan 4.2 05:12:37 10° SSW 05:18:13 80° ESE 05:23:53 10° NNE visible
22 Jan 5.3 06:58:35 10° W 07:03:05 24° NW 07:07:38 10° N visible
23 Jan 6.9 03:19:40 11° ESE 03:21:52 13° E 03:24:26 10° ENE visible
23 Jan 4.2 05:01:44 25° SSW 05:05:05 79° ESE 05:10:45 10° NNE visible
23 Jan 5.3 06:45:25 10° W 06:49:57 24° NW 06:54:30 10° NNE visible
24 Jan 6.8 03:08:12 13° ESE 03:08:45 13° E 03:11:15 10° ENE visible
24 Jan 4.2 04:50:14 46° SSW 04:51:58 78° ESE 04:57:37 10° NNE visible
24 Jan 5.3 06:32:15 10° W 06:36:48 24° NW 06:41:22 10° NNE visible
25 Jan 6.9 02:56:21 13° E 02:56:21 13° E 02:58:02 10° ENE visible
25 Jan 4.2 04:38:21 71° SSE 04:38:49 77° ESE 04:44:29 10° NNE visible
25 Jan 5.3 06:20:21 15° W 06:23:39 25° NW 06:28:16 10° NNE visible
26 Jan 7.0 02:44:15 11° ENE 02:44:15 11° ENE 02:44:49 10° ENE visible
26 Jan 4.3 04:26:14 69° ENE 04:26:14 69° ENE 04:31:21 10° NNE visible
26 Jan 5.2 06:08:13 20° WNW 06:10:30 25° NW 06:15:08 10° NNE visible
27 Jan 4.8 04:13:57 52° NE 04:13:57 52° NE 04:18:13 10° NNE visible
27 Jan 5.2 05:55:56 23° WNW 05:57:21 25° NW 06:02:01 10° NNE visible
28 Jan 5.3 04:01:34 39° NE 04:01:34 39° NE 04:05:05 10° NNE visible
28 Jan 5.2 05:43:32 25° NW 05:44:13 26° NW 05:48:54 10° NNE visible
